Lexington Weather

Lexington, Massachusetts, USA

44°F
4/22/2024 9:08am 
  • Lexington Conditions: Clear
  • Temperature: 44.2°F / 6.8°CWarmer 3.6°F than last hour.
  • Dew Point: 27.3°FDecreased 0.6°Fsince last hour.
  • Relative Humidity: 51%Decreased 9.0% since last hour.
  • Wind: Calm, 10-min avg: Calm, gust: 4 mph
  • Barometer: 29.96 in Steady
  • Visibility: 10 miles
  • Rain Today: 0.00 in
  •   

Regional Weather Roundup
for Boston, MA

        
000
ASUS41 KBOX 161210
RWRBOX

REGIONAL WEATHER ROUNDUP
NATIONAL WEATHER SERVICE BOSTON/NORTON MA
800 AM EDT TUE APR 16 2024

NOTE:  "FAIR" INDICATES FEW OR NO CLOUDS BELOW 12,000 FEET WITH NO 
SIGNIFICANT WEATHER AND/OR OBSTRUCTIONS TO VISIBILITY.

MAZALL-161300-
EASTERN MASSACHUSETTS
  
CITY           SKY/WX    TMP DP  RH WIND       PRES   REMARKS
BOSTON         SUNNY     53  35  50 W9        30.06R                  
6HR MIN TEMP:  50; 6HR MAX TEMP:  53;                                

BEVERLY        SUNNY     49  40  71 NW6       30.05R                  
LAWRENCE       SUNNY     48  37  65 VRB3      30.07R                  
BEDFORD        SUNNY     48  39  71 W3        30.06R                  
NORWOOD        SUNNY     54  37  52 NW6       30.07R                  
MARSHFIELD     SUNNY     54  41  62 VRB6G14   30.05R                  
PLYMOUTH       SUNNY     52  42  69 W7        30.05R                  
TAUNTON        SUNNY     55  39  54 CALM      30.06R                  
NEW BEDFORD    SUNNY     54  41  61 NW7       30.06R                  
$$

MAZALL-161300-
CAPE COD AND THE ISLANDS
  
CITY           SKY/WX    TMP DP  RH WIND       PRES   REMARKS
FALMOUTH       SUNNY     52  43  71 NW8       30.05R                  
HYANNIS        SUNNY     54  41  61 NW7       30.04R                  
CHATHAM        SUNNY     53  44  71 VRB5      30.05R                  
PROVINCETOWN   SUNNY     50  43  77 W10       30.05R                  
NANTUCKET      SUNNY     53  47  79 NW8       30.05R                  
MARTHAS VNYRD  SUNNY     55  46  71 NW5       30.06R                  
$$
 
MAZALL-161300-
CENTRAL AND WESTERN MASSACHUSETTS
  
CITY           SKY/WX    TMP DP  RH WIND       PRES   REMARKS
WORCESTER      SUNNY     49  28  44 NW12      30.06R                  
6HR MIN TEMP:  43; 6HR MAX TEMP:  49;                                

FITCHBURG      SUNNY     51  33  50 NW7       30.07R                  
ORANGE         SUNNY     40  35  83 CALM      30.10R                  
SPRINGFIELD    SUNNY     45  38  75 CALM      30.07R                  
WESTFIELD      SUNNY     48  39  71 CALM      30.09R                  
NORTH ADAMS    SUNNY     41  35  79 CALM      30.12R                  
PITTSFIELD     SUNNY     46  32  58 SW5       30.10R                  
$$
 
RIZALL-161300-
RHODE ISLAND
  
CITY           SKY/WX    TMP DP  RH WIND       PRES   REMARKS
PROVIDENCE     SUNNY     54  35  48 VRB5      30.07R                  
6HR MIN TEMP:  47; 6HR MAX TEMP:  54;                                

NEWPORT        SUNNY     53  36  52 N6        30.07R                  
BLOCK ISLAND   SUNNY     53  32  44 W8        30.09R                  
SMITHFIELD     SUNNY     51  32  48 NW8       30.07R                  
WESTERLY       SUNNY     55  32  41 NW7       30.08R                  
$$
 
CTZALL-161300-
CONNECTICUT
  
CITY           SKY/WX    TMP DP  RH WIND       PRES   REMARKS
BRADLEY INTL   SUNNY     52  32  46 E3        30.10R                  
6HR MIN TEMP:  45; 6HR MAX TEMP:  53;                                

HARTFORD       SUNNY     53  35  50 CALM      30.10R                  
PLAINVILLE     FAIR      48  37  67 CALM      30.11R                  
BRIDGEPORT     SUNNY     55  36  48 W6        30.12R                  
DANBURY        SUNNY     53  35  50 NW5       30.14R                  
GROTON         SUNNY     57  33  40 NW10      30.08R                  
NEW HAVEN      SUNNY     55  35  47 W3        30.11R                  
CHESTER        SUNNY     55  28  35 NW6       30.10R                  
MERIDEN        SUNNY     53  31  42 W5        30.10R                  
WILLIMANTIC    SUNNY     48  36  63 CALM      30.09R                  
OXFORD         SUNNY     50  32  50 NW10      30.12R                  
$$

MEZ002-015-021-024-NHZ003-005-008-011-012-014-VTZ005-008-161300-
NORTHERN NEW ENGLAND
  
CITY           SKY/WX    TMP DP  RH WIND       PRES   REMARKS
PORTLAND ME    MOSUNNY   45  37  73 NW3       30.02R                  
6HR MIN TEMP:  35; 6HR MAX TEMP:  45;                                

BANGOR ME      MOSUNNY   47  36  65 VRB6      29.98R                  
CONCORD NH     MOSUNNY   38  38 100 CALM      30.06R                  
MANCHESTER NH  SUNNY     48  37  65 N5        30.05R                  
NASHUA NH      SUNNY     47  39  74 NW6       30.07R                  
PORTSMOUTH NH  SUNNY     47  40  75 W6        30.04R                  
JAFFREY NH     SUNNY     42  37  82 CALM      30.06R                  
KEENE NH       CLOUDY    39  39 100 CALM      30.09R                  
BURLINGTON VT  MOSUNNY   44  37  76 CALM      30.10R                  
MT. WASHINGTON NOT AVBL                                               
$$

NYZ052-076-161300-
EASTERN NEW YORK
  
CITY           SKY/WX    TMP DP  RH WIND       PRES   REMARKS
ALBANY         SUNNY     49  35  58 CALM      30.14R                  
6HR MIN TEMP:  38; 6HR MAX TEMP:  49;                                

NEW YORK CITY  MOSUNNY   55  34  45 NW13      30.13R                  
6HR MIN TEMP:  54; 6HR MAX TEMP:  56;                                

$$
 
ANZALL-161300-
MARINE OBSERVATIONS
  
STATION/POSITION TIME  TEMP    WIND        PRES    VSBY  WAVE
                       AIR SEA DIR/SP/G                  HT/PER
                 (UTC) (F)     (DEG/KT/KT) (MB)    (MI)  (FT/S)
BOSTON BUOY      1150   46     270/  8/  8 1017.1R         2/11
BUZZARDS BAY     1100   53     310/ 12/ 12 1017.8R
NANTUCKET SOUND  1150   49 46  280/  4/  6 1017.2R         1
MASS BAY-STELLWA 1004   45 44  270/  6/  6 1016.0R  1 7/8  2/11
ISLE OF SHOALS   1100   45     280/ 11/ 11 1015.9R
S OF BLOCK IS    1156      45                N/A           4/ 9
$$

......................KEY.........................
  SKY/WX - SKY CONDITION/PRESENT WEATHER
  TMP    - TEMPERATURE IN FAHRENHEIT
  DWPT   - DEWPOINT IN FAHRENHEIT
  RH     - RELATIVE HUMIDITY IN PERCENT
  WIND   - DIRECTION AND SPEED IN MPH
  PRES   - MEAN SEA LEVEL PRESSURE IN INCHES OF HG
  WCI    - WIND CHILL INDEX
  VSB    - VISIBILITY IN MILES
  HX     - HEAT INDEX
  TC     - TEMPERATURE IN CELSIUS
  VRB    - VARIABLE WIND DIRECTION
  N/A    - NOT AVAILABLE
  
      

Other recent Regional Weather Roundups

Mon Apr 22, 8:10am EDT

Mon Apr 22, 7:10am EDT

Mon Apr 22, 6:10am EDT

Mon Apr 22, 5:10am EDT

Mon Apr 22, 4:10am EDT

Mon Apr 22, 3:10am EDT

Mon Apr 22, 2:10am EDT

Mon Apr 22, 1:10am EDT

Mon Apr 22, 12:10am EDT

Sun Apr 21, 11:10pm EDT

Sun Apr 21, 10:10pm EDT

Sun Apr 21, 9:10pm EDT

Sun Apr 21, 8:10pm EDT

Sun Apr 21, 7:10pm EDT

Sun Apr 21, 6:10pm EDT

Sun Apr 21, 5:10pm EDT

Sun Apr 21, 4:10pm EDT

Sun Apr 21, 3:10pm EDT

Sun Apr 21, 2:10pm EDT

Sun Apr 21, 1:10pm EDT

Sun Apr 21, 12:10pm EDT

Sun Apr 21, 11:10am EDT

Sun Apr 21, 10:10am EDT

Sun Apr 21, 9:10am EDT

Sun Apr 21, 8:10am EDT

Sun Apr 21, 7:10am EDT

Sun Apr 21, 6:10am EDT

Sun Apr 21, 5:10am EDT

Sun Apr 21, 4:10am EDT

Sun Apr 21, 3:10am EDT

Sun Apr 21, 2:10am EDT

Sun Apr 21, 1:10am EDT

Sun Apr 21, 12:10am EDT

Sat Apr 20, 11:10pm EDT

Sat Apr 20, 10:10pm EDT

Sat Apr 20, 9:10pm EDT

Sat Apr 20, 8:10pm EDT

Sat Apr 20, 7:10pm EDT

Sat Apr 20, 6:10pm EDT

Sat Apr 20, 5:10pm EDT

Sat Apr 20, 4:10pm EDT

Sat Apr 20, 3:10pm EDT

Sat Apr 20, 2:10pm EDT

Sat Apr 20, 1:10pm EDT

Sat Apr 20, 12:10pm EDT

Sat Apr 20, 11:10am EDT

Sat Apr 20, 10:10am EDT

Sat Apr 20, 9:10am EDT

Sat Apr 20, 8:10am EDT

Sat Apr 20, 7:10am EDT

Sat Apr 20, 6:10am EDT

Sat Apr 20, 5:10am EDT

Sat Apr 20, 4:10am EDT

Sat Apr 20, 3:10am EDT

Sat Apr 20, 2:10am EDT

Sat Apr 20, 1:10am EDT

Sat Apr 20, 12:10am EDT

Fri Apr 19, 11:10pm EDT

Fri Apr 19, 10:10pm EDT

Fri Apr 19, 9:10pm EDT

Fri Apr 19, 8:10pm EDT

Fri Apr 19, 7:10pm EDT

Fri Apr 19, 6:10pm EDT

Fri Apr 19, 5:10pm EDT

Fri Apr 19, 4:10pm EDT

Fri Apr 19, 3:10pm EDT

Fri Apr 19, 2:10pm EDT

Fri Apr 19, 1:10pm EDT

Fri Apr 19, 12:10pm EDT

Fri Apr 19, 11:10am EDT

Fri Apr 19, 10:10am EDT

Fri Apr 19, 9:10am EDT

Fri Apr 19, 8:10am EDT

Fri Apr 19, 7:10am EDT

Fri Apr 19, 6:10am EDT

Fri Apr 19, 5:10am EDT

Fri Apr 19, 4:10am EDT

Fri Apr 19, 3:10am EDT

Fri Apr 19, 2:10am EDT

Fri Apr 19, 1:10am EDT

Fri Apr 19, 12:10am EDT

Thu Apr 18, 11:10pm EDT

Thu Apr 18, 10:10pm EDT

Thu Apr 18, 9:10pm EDT

Thu Apr 18, 8:10pm EDT

Thu Apr 18, 7:10pm EDT

Thu Apr 18, 6:10pm EDT

Thu Apr 18, 5:10pm EDT

Thu Apr 18, 4:10pm EDT

Thu Apr 18, 3:10pm EDT

Thu Apr 18, 2:10pm EDT

Thu Apr 18, 1:10pm EDT

Thu Apr 18, 12:10pm EDT

Thu Apr 18, 11:10am EDT

Thu Apr 18, 10:10am EDT

Thu Apr 18, 9:10am EDT

Thu Apr 18, 8:10am EDT

Thu Apr 18, 7:10am EDT

Thu Apr 18, 6:10am EDT

Thu Apr 18, 5:10am EDT

Thu Apr 18, 4:10am EDT

Thu Apr 18, 3:10am EDT

Thu Apr 18, 2:10am EDT

Thu Apr 18, 1:10am EDT

Thu Apr 18, 12:10am EDT

Wed Apr 17, 11:10pm EDT

Wed Apr 17, 10:10pm EDT

Wed Apr 17, 9:10pm EDT

Wed Apr 17, 8:10pm EDT

Wed Apr 17, 7:10pm EDT

Wed Apr 17, 6:10pm EDT

Wed Apr 17, 5:10pm EDT

Wed Apr 17, 4:10pm EDT

Wed Apr 17, 3:10pm EDT

Wed Apr 17, 2:10pm EDT

Wed Apr 17, 1:10pm EDT

Wed Apr 17, 12:10pm EDT

Wed Apr 17, 11:10am EDT

Wed Apr 17, 10:10am EDT

Wed Apr 17, 9:10am EDT

Wed Apr 17, 8:10am EDT

Wed Apr 17, 7:10am EDT

Wed Apr 17, 6:10am EDT

Wed Apr 17, 5:10am EDT

Wed Apr 17, 4:10am EDT

Wed Apr 17, 3:10am EDT

Wed Apr 17, 2:10am EDT

Wed Apr 17, 1:10am EDT

Wed Apr 17, 12:10am EDT

Tue Apr 16, 11:10pm EDT

Tue Apr 16, 10:10pm EDT

Tue Apr 16, 9:10pm EDT

Tue Apr 16, 8:10pm EDT

Tue Apr 16, 7:10pm EDT

Tue Apr 16, 6:10pm EDT

Tue Apr 16, 5:10pm EDT

Tue Apr 16, 4:10pm EDT

Tue Apr 16, 3:10pm EDT

Tue Apr 16, 2:10pm EDT

Tue Apr 16, 1:10pm EDT

Tue Apr 16, 12:10pm EDT

Tue Apr 16, 11:10am EDT

Tue Apr 16, 10:10am EDT

Tue Apr 16, 9:10am EDT

Tue Apr 16, 7:10am EDT

Tue Apr 16, 6:10am EDT

Tue Apr 16, 5:10am EDT

Tue Apr 16, 4:10am EDT

Tue Apr 16, 3:10am EDT

Tue Apr 16, 2:10am EDT

Tue Apr 16, 1:10am EDT

Tue Apr 16, 12:10am EDT

Mon Apr 15, 11:10pm EDT

Mon Apr 15, 10:10pm EDT

Mon Apr 15, 9:10pm EDT

Mon Apr 15, 8:10pm EDT

Mon Apr 15, 7:10pm EDT

Mon Apr 15, 6:10pm EDT

Mon Apr 15, 5:10pm EDT

Mon Apr 15, 4:10pm EDT

Mon Apr 15, 3:10pm EDT

Mon Apr 15, 2:10pm EDT

Mon Apr 15, 1:10pm EDT

Mon Apr 15, 12:10pm EDT

Mon Apr 15, 11:10am EDT

Mon Apr 15, 10:10am EDT

Mon Apr 15, 9:10am EDT